Theta_e
291 288 286 286 289 290 291 291 291 289 288 286 285 285 285 284 286 287 288 290 290 290 288 288 287 286 288 289 290 291 291 290 290 289 289 289 289 289 288 288 289 289 289 291 291 291 291 292 292 293 293 293 293 293 294 294 294 294 295 295 295 297 298 299 300 300 301 303 304 303 302 302 303 304 306 306 307 306 306 307 308 308 308 308 307 306
292 287 287 290 293 293 291 290 290 288 288 288 286 284 285 284 285 289 289 290 289 290 285 285 287 287 289 289 290 291 290 288 288 288 288 288 288 288 288 288 288 288 289 289 289 290 290 290 291 292 292 292 291 292 292 292 293 293 294 294 294 295 296 296 297 298 298 298 298 299 298 299 299 299 299 299 300 302 303 302 302 304 306 306 306 305
287 287 291 293 291 288 288 288 288 288 288 286 285 284 283 286 285 289 289 289 289 289 287 284 287 289 289 288 290 289 288 288 289 288 288 288 288 288 288 287 287 287 287 288 288 288 289 289 289 290 291 291 291 291 291 292 292 292 293 293 293 294 294 295 296 296 296 296 297 297 295 296 295 295 296 296 295 297 298 298 298 298 300 301 301 302
286 288 292 292 291 291 289 287 286 287 286 285 284 284 285 285 286 285 286 287 290 288 286 286 286 288 286 288 288 289 288 288 288 288 288 288 287 287 287 287 286 286 286 286 286 286 287 288 288 289 289 289 290 290 291 291 291 292 292 292 292 293 293 293 294 295 295 295 295 296 296 296 295 294 294 295 295 294 295 294 295 295 295 297 297 297
290 291 292 290 290 290 289 287 287 286 286 284 286 284 285 286 286 287 287 286 286 288 284 285 285 283 284 285 285 287 288 288 288 288 287 288 287 287 287 287 286 285 285 285 285 286 286 286 286 287 288 288 288 289 289 290 290 291 291 291 292 292 292 292 293 293 294 295 294 295 295 295 294 294 294 293 293 292 292 293 292 292 293 294 294 294
289 293 291 290 288 289 288 287 286 287 284 283 284 289 289 289 287 285 284 287 283 282 283 284 279 276 278 283 284 285 286 286 286 285 285 286 286 286 285 285 286 286 285 284 284 284 285 285 286 286 286 287 287 287 288 289 290 290 291 291 291 291 292 292 292 293 293 293 292 292 292 291 290 289 290 289 289 290 290 290 291 292 292 291 292 292
291 291 293 292 289 287 287 286 285 289 285 284 287 287 290 288 286 285 285 285 280 280 284 283 282 276 279 283 283 284 283 284 284 284 285 285 285 285 285 285 284 284 284 284 284 284 284 284 284 285 285 285 286 286 287 288 288 289 289 290 290 290 291 291 291 292 292 291 291 291 290 289 289 288 288 288 289 289 289 290 290 290 290 290 290 290
290 289 290 290 289 288 286 287 287 289 286 284 285 284 285 286 286 285 284 285 281 280 282 283 281 281 281 282 284 285 284 283 283 283 284 284 284 284 284 284 283 284 283 283 283 283 283 283 283 283 284 284 285 285 286 287 287 287 287 288 288 289 290 290 291 291 291 290 290 289 289 289 288 288 287 288 289 289 289 289 289 289 289 289 289 289
290 288 287 288 287 286 287 287 286 290 288 285 286 283 284 284 284 283 283 281 281 281 279 281 283 281 276 279 283 284 283 281 282 283 283 284 284 284 284 284 283 283 283 282 282 282 282 282 283 283 283 284 284 285 285 285 286 287 286 287 287 287 287 288 289 289 289 290 289 288 288 287 288 288 287 287 288 287 287 286 287 287 287 288 288 288
290 291 289 289 287 287 287 284 286 291 288 288 284 284 283 283 282 280 279 283 278 278 277 281 282 277 280 278 281 282 282 281 282 283 283 284 284 284 283 283 283 282 282 282 282 282 282 282 282 282 283 283 283 284 285 284 285 285 285 286 285 285 286 286 287 287 288 288 288 287 286 285 285 285 285 285 285 286 286 285 285 285 285 286 286 286
289 291 291 290 289 288 286 286 285 287 288 286 285 285 282 280 279 279 278 277 279 273 280 282 282 283 276 279 282 282 282 282 283 282 283 284 284 284 283 283 283 282 282 282 281 281 281 281 282 282 282 282 282 283 283 283 284 284 284 284 284 284 285 285 285 286 286 286 286 286 285 285 284 284 284 284 283 284 284 283 284 284 285 285 285 285
287 288 290 288 290 288 287 286 285 284 284 286 285 282 283 284 277 275 271 275 272 275 278 278 281 282 275 276 279 281 282 283 285 283 283 284 283 283 282 282 282 282 281 281 281 281 281 281 281 281 281 281 281 282 282 282 283 283 283 283 283 283 284 284 284 285 285 285 285 285 285 284 284 284 284 283 283 283 283 283 283 284 284 285 285 285
285 288 286 289 290 291 286 285 285 284 283 284 283 284 279 272 274 271 269 272 272 275 276 277 280 279 280 281 282 281 281 282 284 286 285 284 283 283 282 282 282 281 281 281 281 280 281 281 281 281 281 281 281 281 281 282 282 282 282 283 283 282 283 283 284 284 284 284 284 284 284 284 285 284 284 284 284 285 284 283 283 283 283 284 284 284
283 282 286 287 289 290 290 286 283 285 283 284 284 279 273 271 269 265 267 264 267 273 276 280 281 278 278 280 280 280 282 282 283 286 286 285 284 283 282 281 281 281 280 280 280 280 280 280 281 281 281 281 281 281 281 281 282 282 282 282 282 282 282 283 283 283 283 283 284 284 284 284 284 284 285 285 285 285 285 285 284 284 284 284 284 284
276 279 284 287 286 288 291 291 289 282 282 285 283 285 282 274 267 268 265 271 273 273 275 276 275 271 276 280 279 280 281 281 282 284 283 283 282 281 280 280 280 280 281 280 280 280 280 281 281 281 281 281 281 281 281 281 281 281 282 282 282 282 282 282 282 282 283 283 283 283 284 285 285 284 285 285 286 286 285 285 285 285 285 285 284 284
282 282 284 286 287 289 289 289 286 283 283 282 280 283 279 280 279 277 271 267 266 269 271 273 275 275 279 279 280 280 281 281 281 282 282 281 281 280 280 280 280 280 280 280 280 280 280 280 280 281 281 281 281 281 281 281 281 281 281 281 281 282 282 282 282 282 283 283 284 285 285 285 285 285 285 285 286 286 286 285 285 284 284 285 285 285
282 280 283 287 286 286 288 287 289 286 281 282 283 279 282 283 283 275 271 272 272 269 274 269 276 279 280 281 279 279 280 280 280 280 281 281 280 279 280 280 279 280 279 279 279 279 280 280 280 281 281 281 281 281 281 281 281 281 281 281 282 282 281 283 284 284 284 284 283 283 283 284 284 284 284 284 284 284 284 284 284 283 284 284 284 285
283 280 283 285 286 287 284 286 285 284 285 284 278 283 284 283 281 279 273 268 265 269 272 270 274 277 278 275 278 278 279 279 279 279 280 280 279 279 280 280 280 280 280 279 279 280 280 280 281 281 282 281 281 281 280 281 281 281 282 283 284 284 284 285 285 285 285 285 284 283 283 283 284 284 283 283 282 282 283 283 282 281 281 281 282 283
288 281 283 284 285 287 284 288 287 286 287 283 282 284 284 277 277 278 271 270 268 267 268 270 274 275 277 280 277 278 278 280 279 279 279 280 280 280 280 280 279 279 279 280 279 279 280 280 280 280 282 283 283 284 283 283 284 284 285 285 285 284 284 285 285 285 285 285 285 284 283 283 283 283 282 282 282 281 281 280 281 280 280 280 280 280
288 283 282 285 285 286 284 285 281 283 287 286 286 285 282 281 275 273 278 272 273 266 269 267 271 277 278 277 279 281 281 281 280 279 280 281 281 281 281 281 281 280 280 280 280 281 281 281 281 282 283 284 285 286 286 286 285 284 285 284 284 284 284 284 284 284 283 284 282 282 283 282 282 282 282 282 281 281 280 280 280 280 280 280 280 279
286 286 278 284 282 285 283 283 282 284 282 284 284 280 282 278 280 278 276 274 275 265 267 269 270 275 277 279 280 282 282 282 281 281 282 282 282 281 281 282 281 281 281 282 282 283 283 283 283 283 284 284 284 284 284 284 283 283 282 282 282 282 282 282 282 282 282 281 281 280 280 279 280 280 281 281 280 281 281 281 281 281 280 280 280 280
282 283 282 279 281 282 281 281 284 284 287 284 285 282 284 279 277 276 277 277 269 274 270 269 275 280 279 283 282 281 282 283 283 283 282 282 282 282 282 282 282 283 283 284 284 283 283 283 284 283 283 283 283 282 282 282 281 281 282 280 280 280 280 280 281 281 281 280 280 280 279 279 279 278 278 279 279 280 280 279 280 280 280 279 280 280
286 281 279 279 281 281 282 285 282 283 282 281 285 282 282 279 279 274 275 274 271 274 271 269 271 277 281 282 282 282 282 284 284 283 283 283 283 283 283 283 283 284 284 284 284 283 283 283 284 283 282 282 282 281 281 280 281 280 280 280 280 280 280 280 280 280 280 279 279 279 278 278 278 278 278 279 278 278 279 279 279 279 279 279 279 279
290 278 278 280 278 279 282 282 283 283 283 284 283 280 281 281 282 281 278 274 272 269 271 269 273 279 284 282 280 280 281 281 282 283 283 284 284 284 283 283 283 284 284 284 284 283 283 283 283 282 281 281 282 282 281 280 280 280 280 280 281 280 281 280 279 279 279 279 279 277 278 278 277 278 277 278 278 278 278 278 278 278 278 278 278 278
281 281 281 274 275 277 279 282 282 283 282 280 281 281 280 280 278 274 273 272 274 274 276 273 274 279 283 280 279 280 281 281 282 283 284 284 283 283 283 283 284 284 284 284 284 283 283 282 282 283 283 282 282 281 280 280 280 281 281 280 279 279 279 278 278 278 278 278 278 277 277 277 277 277 277 276 277 277 277 277 277 277 277 277 277 277
285 281 280 277 276 274 274 274 270 273 281 279 279 279 280 281 278 278 276 277 276 280 279 276 278 280 280 281 281 281 281 281 281 281 282 282 283 284 284 285 285 285 285 284 283 282 281 281 281 280 280 280 280 280 280 279 279 278 278 277 278 278 278 278 277 277 277 277 277 277 276 276 276 276 276 276 276 276 276 276 276 276 276 276 276 277
281 278 280 284 282 280 281 277 277 280 278 278 277 278 280 279 279 279 274 274 276 278 277 278 279 279 282 282 281 281 279 281 283 284 284 283 283 284 285 286 285 284 283 282 282 281 280 280 280 280 280 280 280 279 279 278 278 278 277 277 277 276 277 277 277 277 277 276 276 276 276 275 275 276 275 276 276 276 276 276 275 275 275 276 275 275
279 279 280 280 281 282 281 280 282 284 281 281 279 280 280 279 277 278 278 275 277 275 274 282 280 278 281 283 281 280 280 282 284 284 284 282 283 282 282 282 284 280 280 280 280 280 280 280 280 280 280 279 279 277 277 277 277 277 277 277 276 276 276 277 276 276 276 276 275 275 275 275 275 275 275 275 275 275 275 275 275 275 275 274 274 274
280 280 280 280 279 280 280 281 283 283 283 283 282 282 281 280 277 277 276 281 281 278 277 281 282 280 282 283 281 283 283 284 284 283 284 284 283 280 279 280 280 280 280 280 280 280 280 280 280 280 279 279 277 277 277 278 277 277 276 276 276 275 275 275 275 275 275 275 275 275 274 275 275 275 274 274 274 274 274 274 273 273 273 273 272 273
280 275 274 277 276 277 278 279 280 280 278 279 279 280 280 279 278 279 278 281 281 280 281 280 280 279 281 282 280 282 283 282 282 282 280 280 280 280 279 279 280 280 279 279 279 280 280 280 280 280 279 277 278 277 278 278 277 277 276 275 275 274 275 274 274 274 274 274 274 274 274 273 273 273 273 273 272 272 272 272 271 271 271 271 271 271
285 279 282 277 277 275 276 278 278 278 278 277 280 280 280 278 277 279 280 279 278 278 279 278 277 278 283 282 281 280 280 280 279 280 281 280 279 279 279 279 280 280 280 279 279 279 280 279 278 277 277 278 277 278 278 278 277 276 275 274 274 274 274 273 273 272 272 272 273 272 272 272 272 272 271 272 271 271 270 270 269 269 269 269 269 269
281 275 276 275 275 275 277 277 278 276 277 275 276 277 277 275 274 277 274 277 276 275 277 275 272 275 281 278 279 277 276 278 280 281 280 279 278 279 279 279 279 279 279 279 279 278 278 278 277 277 278 278 278 278 278 277 276 274 274 273 273 273 273 272 272 271 271 272 271 272 271 271 271 270 270 269 269 268 267 267 267 267 267 267 267 267
280 276 273 272 273 274 275 274 274 273 275 274 275 278 278 277 278 277 276 277 278 278 273 271 274 279 279 279 277 277 277 277 277 277 278 277 277 278 279 279 279 279 279 279 278 278 278 278 278 278 278 278 278 278 278 277 275 274 273 272 273 272 271 271 271 270 270 271 270 270 270 269 268 268 267 267 266 266 266 265 265 265 265 265 265 266
277 280 276 278 275 272 270 270 272 271 267 271 280 279 279 277 276 274 275 277 276 278 273 278 278 277 275 276 277 278 278 277 278 278 279 280 278 277 278 278 279 279 279 278 277 278 278 278 278 278 278 278 277 277 276 274 274 273 272 272 271 270 270 269 269 269 269 269 269 269 268 267 265 265 265 265 264 264 264 264 263 264 264 264 264 264
279 280 279 277 275 272 269 271 270 267 270 279 278 279 278 277 275 276 276 272 271 275 276 275 274 275 278 279 279 278 277 277 276 277 276 276 278 279 279 278 278 278 277 276 277 277 278 278 277 277 276 276 274 273 272 272 272 272 271 270 270 269 268 268 267 267 269 267 268 267 266 266 265 264 264 264 263 263 262 262 262 263 263 263 263 262
278 279 278 277 275 273 270 272 267 268 279 278 277 276 273 275 274 274 272 275 276 275 276 276 277 278 279 278 277 276 276 275 274 275 275 275 277 279 278 278 277 276 275 276 277 278 278 277 277 277 276 275 273 272 271 271 271 269 269 268 269 267 267 266 266 267 267 266 266 265 266 264 263 263 263 263 262 261 262 261 261 261 262 262 262 262
281 279 278 275 279 272 274 272 272 277 276 278 277 274 275 274 273 272 268 274 276 275 275 276 277 278 277 277 275 273 274 275 275 274 275 275 276 275 277 276 276 276 277 277 278 278 279 279 278 277 275 273 272 271 270 270 268 268 267 266 266 265 265 265 265 266 266 265 264 264 264 264 263 262 261 262 261 260 260 261 261 261 261 260 261 261
282 280 281 278 275 280 272 272 271 270 268 274 279 277 279 277 277 276 274 271 273 270 276 276 277 278 274 274 273 273 274 274 271 273 277 277 275 276 276 276 276 276 277 277 276 277 278 276 275 274 273 271 270 270 269 267 267 266 265 265 265 265 265 264 264 265 264 264 263 263 263 262 261 261 261 260 259 260 260 260 260 260 260 260 260 259
278 280 280 280 275 276 273 270 270 269 271 276 272 274 273 272 275 271 267 265 271 268 272 275 276 274 273 273 272 272 271 266 269 274 277 277 275 275 276 276 276 276 277 277 278 277 276 275 274 272 270 269 268 268 267 265 264 264 264 264 264 264 263 263 264 264 263 263 263 263 261 261 260 260 260 259 260 259 259 259 259 260 260 259 259 259
273 273 276 274 275 276 274 272 269 273 272 273 270 272 274 273 276 272 257 260 267 270 270 274 275 275 274 273 274 273 272 266 270 275 277 277 277 276 277 277 276 276 275 275 276 276 275 272 270 269 269 268 268 266 265 264 264 263 263 263 263 263 262 263 263 263 263 262 262 261 260 259 259 259 259 259 259 259 259 259 259 259 259 259 259 258
274 272 275 272 274 275 276 272 273 273 276 269 272 274 272 270 273 264 264 267 270 270 273 275 276 276 274 273 274 271 274 276 277 278 276 276 276 276 275 275 276 276 276 275 275 275 272 271 271 270 269 268 266 265 264 263 262 262 262 263 262 261 263 263 262 262 262 262 260 259 259 258 258 258 258 258 258 259 259 259 259 259 258 258 258 258
267 269 270 274 271 272 273 271 271 274 278 274 274 276 275 273 262 266 271 273 273 273 274 276 276 276 274 275 274 276 277 278 277 275 275 276 277 278 277 274 273 273 273 273 274 272 271 270 268 267 266 266 265 264 263 262 261 262 262 261 260 261 263 262 262 261 259 259 258 258 257 257 257 257 257 257 257 257 257 258 258 258 257 257 257 257
268 268 267 270 273 271 271 269 268 265 274 276 275 274 275 268 269 275 273 274 272 275 275 274 275 276 275 275 275 276 277 276 275 275 276 276 276 276 275 274 274 274 273 271 271 270 271 269 267 267 265 264 263 263 263 260 259 259 260 260 261 261 261 261 261 260 259 258 257 256 256 256 256 257 257 257 257 256 257 257 257 256 256 256 256 256
271 261 258 265 273 266 269 266 267 274 276 277 277 272 273 277 277 274 276 274 274 274 274 275 275 276 275 276 276 275 275 275 274 274 273 274 275 275 274 274 274 274 273 272 273 270 269 269 267 265 264 263 262 262 263 260 258 259 258 260 262 260 260 259 258 257 256 255 256 256 256 255 256 256 255 256 256 256 256 256 256 256 255 256 256 256
272 268 267 266 269 268 267 272 275 276 277 277 279 278 279 280 280 276 276 278 275 274 274 275 276 276 276 276 276 276 275 275 276 276 275 276 275 274 274 274 274 274 273 272 270 268 268 268 266 264 263 263 261 261 260 259 258 258 257 260 260 258 258 257 256 254 253 254 253 254 255 255 255 255 255 255 255 255 256 256 256 255 255 255 255 256
270 273 267 268 268 272 273 273 274 273 275 277 279 279 278 279 279 277 277 277 276 276 276 276 277 276 276 275 275 274 275 276 276 275 274 274 274 274 274 273 272 271 269 267 266 266 265 264 263 262 262 261 260 261 259 259 258 255 257 259 259 258 256 255 253 253 253 253 254 254 254 254 255 255 255 255 255 255 255 255 256 256 256 255 255 255
272 272 270 269 268 267 266 272 273 274 274 276 278 279 279 278 279 279 277 277 278 277 275 276 277 277 276 275 275 276 276 276 275 275 274 273 273 273 274 274 273 271 269 268 267 264 262 262 262 260 260 260 259 259 258 256 257 257 258 256 258 258 256 253 253 253 253 253 254 254 254 254 254 255 255 254 255 255 255 256 256 255 256 255 255 255
270 273 271 273 269 270 268 271 273 274 274 275 277 278 279 280 279 276 278 279 279 278 277 277 275 273 273 273 275 275 276 276 275 275 274 274 274 274 273 273 272 269 267 267 265 263 262 262 262 260 259 259 260 259 258 257 256 256 256 255 256 254 253 253 253 253 252 253 253 254 254 254 256 256 256 255 255 255 256 256 256 255 255 256 256 257
273 274 265 269 270 270 273 274 273 273 274 276 276 277 279 280 280 278 276 276 276 275 275 273 274 276 275 276 275 275 274 275 275 275 275 275 274 273 272 272 271 269 266 264 262 261 264 261 260 259 258 259 259 257 256 255 255 255 255 257 255 253 252 252 253 253 251 252 253 253 255 255 255 255 255 255 255 255 256 256 256 256 257 259 260 260
272 272 272 270 265 263 267 273 276 268 270 276 277 278 278 279 277 277 275 274 274 274 275 275 275 274 275 275 275 274 274 275 275 274 274 275 275 274 273 271 268 266 264 263 261 260 260 259 259 258 257 258 258 256 255 254 255 254 256 255 253 252 252 252 252 251 252 253 253 254 254 254 254 254 255 255 255 255 256 260 263 263 261 261 265 268
274 275 273 269 269 269 275 276 277 277 277 277 278 278 278 278 276 276 276 276 276 276 276 275 275 275 274 273 274 274 274 275 275 275 273 273 273 274 273 270 267 265 263 261 260 258 259 258 257 256 256 257 256 255 255 255 255 254 254 255 255 253 252 251 252 252 252 253 253 255 255 254 254 255 254 255 255 255 255 255 257 263 265 265 266 267
Wind_Speed
1 4 6 8 9 11 13 15 12 1 3 2 2 1 4 5 7 3 3 6 0 2 7 5 5 5 9 2 6 7 5 8 7 7 6 5 5 6 6 6 6 8 6 4 5 6 7 9 9 8 9 9 12 13 13 13 13 13 11 12 13 9 10 9 9 8 7 7 7 8 9 8 7 7 8 9 8 8 8 9 8 8 7 7 7 6
3 4 9 10 15 12 6 2 1 2 1 0 1 1 7 4 9 5 3 1 0 3 3 0 1 6 9 4 4 3 7 7 5 6 6 6 5 5 6 6 7 4 3 6 9 10 10 10 11 9 9 11 14 13 13 13 11 11 13 13 10 10 10 10 8 6 8 5 5 7 6 7 7 9 10 9 9 8 9 11 10 9 8 8 7 6
2 8 12 15 2 5 2 4 4 6 6 1 4 3 4 8 5 11 3 2 1 3 8 1 2 7 6 4 6 8 7 4 5 4 3 4 5 5 6 6 6 6 5 6 7 8 9 9 9 8 9 10 9 10 11 10 12 13 12 11 10 10 10 9 9 8 7 6 5 6 5 6 6 5 5 7 6 8 9 10 10 10 10 9 9 8
4 7 15 4 3 3 0 3 4 2 1 3 1 1 8 2 1 6 2 3 1 1 2 0 4 8 1 5 7 6 4 5 6 7 7 5 6 6 5 4 4 4 4 7 7 7 7 7 8 9 10 9 9 10 11 12 11 10 11 10 11 11 10 10 10 8 6 5 5 6 8 8 9 5 4 7 10 11 13 12 10 11 9 9 9 10
11 3 1 3 4 6 4 1 4 4 5 3 5 4 5 3 6 7 5 2 1 0 1 1 4 5 4 3 2 3 4 6 5 6 6 6 5 3 3 6 5 3 3 5 7 8 8 10 10 9 8 8 11 11 11 11 10 8 11 10 10 10 10 10 10 9 6 6 7 5 7 7 8 10 11 12 12 10 9 10 12 10 10 9 10 9
11 8 2 4 2 2 3 1 5 6 3 2 6 12 10 7 6 4 4 4 6 3 3 2 4 3 2 2 5 4 2 4 2 5 5 4 4 4 6 5 4 4 3 5 6 7 7 7 7 9 10 11 11 11 9 8 9 10 11 11 11 11 11 11 11 10 10 10 10 11 11 10 9 11 11 11 9 9 10 8 5 11 11 10 10 10
7 1 5 6 4 2 2 2 4 6 4 2 6 7 11 7 3 1 0 2 2 1 1 2 1 7 4 2 6 4 3 4 3 3 3 3 3 3 3 3 3 3 4 6 7 7 8 8 8 10 11 10 11 9 7 8 10 11 11 11 12 11 10 10 11 11 9 11 11 11 10 9 9 8 6 4 5 6 6 7 11 9 10 11 11 10
1 1 2 1 4 4 4 5 5 9 5 3 2 3 3 3 4 3 3 5 3 1 5 2 2 6 6 4 2 5 6 3 3 2 2 2 2 2 3 3 3 3 4 5 6 6 6 6 7 9 8 9 9 6 7 9 10 12 12 12 12 11 12 11 10 13 11 11 10 11 11 10 10 9 7 8 7 7 8 11 11 10 10 10 10 11
2 0 2 3 2 3 7 4 3 7 7 3 1 5 2 3 2 4 3 2 0 2 7 1 1 1 5 3 2 5 5 1 2 3 2 2 1 1 2 2 3 3 4 4 5 5 5 6 6 6 8 6 7 7 8 8 8 9 10 11 12 13 12 11 13 12 12 11 11 10 9 11 8 8 7 6 8 9 9 13 11 11 10 10 11 11
1 1 2 6 5 6 3 1 4 10 5 2 4 7 6 6 6 3 2 3 3 1 6 5 3 3 10 2 2 2 2 5 5 5 4 3 3 2 1 2 3 3 3 4 4 4 5 4 4 4 4 8 7 6 6 7 7 8 9 12 14 13 10 9 11 11 12 11 10 12 12 12 9 8 7 8 10 9 9 11 10 8 9 8 10 10
1 3 5 4 4 3 4 1 1 1 0 4 3 2 4 7 3 3 6 2 2 5 5 10 9 7 8 3 7 9 6 2 7 2 2 3 3 1 1 1 2 2 3 3 3 4 4 3 4 4 8 7 6 6 6 8 8 7 10 11 15 10 9 10 11 11 12 10 11 11 11 11 10 9 9 11 11 10 11 10 9 8 6 6 7 7
2 1 0 1 3 3 3 4 3 1 2 2 1 2 5 3 6 2 4 4 1 8 0 3 5 4 8 5 2 2 1 3 12 12 11 9 7 4 3 1 1 2 2 2 3 3 3 4 5 6 8 7 6 7 9 8 7 8 8 10 13 11 10 9 9 11 10 10 10 10 10 11 9 9 9 10 10 9 10 9 9 6 7 8 7 7
4 7 2 4 3 7 2 5 2 4 2 4 4 3 1 5 6 3 2 2 6 8 1 2 3 2 12 5 0 2 2 2 4 8 15 12 9 6 4 3 1 1 2 2 2 2 3 4 4 6 5 5 6 8 7 8 7 7 8 9 13 11 9 9 9 11 10 11 10 9 9 8 8 9 9 9 10 8 8 7 8 9 9 8 10 10
7 2 1 3 1 4 6 5 1 0 0 5 4 4 4 0 1 3 5 1 6 6 3 0 1 4 3 5 1 4 4 4 5 5 7 11 11 9 6 4 3 2 1 1 1 1 2 3 4 4 4 5 5 6 6 6 7 6 8 8 11 9 7 7 8 9 10 9 8 7 8 7 7 8 9 8 8 7 6 6 6 6 6 6 7 7
1 3 5 5 3 2 6 8 9 4 7 7 2 8 8 8 5 4 4 5 6 6 2 5 2 6 2 2 1 4 4 3 1 4 5 5 5 5 4 3 3 2 1 1 1 1 2 3 3 4 4 4 5 5 5 4 5 5 7 8 9 8 6 6 7 6 8 8 7 6 6 7 6 7 7 6 5 6 6 6 6 6 5 5 6 6
5 5 4 2 1 3 8 1 6 6 3 2 3 5 5 7 6 7 5 3 2 3 3 2 5 3 4 0 2 1 2 4 3 5 7 6 4 4 4 4 4 3 2 1 2 2 2 2 2 3 4 4 4 4 4 5 5 6 6 6 6 6 5 5 5 5 6 6 6 6 7 7 7 6 5 5 5 5 4 5 4 4 4 4 4 4
1 4 1 4 2 2 1 2 1 4 6 3 4 4 7 2 5 1 2 1 2 2 9 2 5 4 2 0 2 2 3 2 3 4 5 6 5 4 5 4 4 4 3 3 3 3 2 1 1 2 3 3 3 4 4 4 4 5 5 6 6 5 4 4 4 5 4 5 5 5 5 5 5 6 5 5 5 4 4 3 3 3 3 3 4 4
4 6 1 4 4 0 0 0 2 4 3 7 2 7 2 2 4 4 4 2 1 5 7 2 5 4 1 9 1 1 2 1 3 4 4 4 4 5 6 5 5 5 4 4 3 2 2 2 2 2 1 2 3 4 4 4 3 4 4 5 6 5 6 4 4 5 5 5 5 4 4 4 4 4 3 3 3 3 4 4 3 3 5 5 5 4
3 5 3 1 1 2 2 1 2 2 2 3 2 2 3 3 1 1 4 4 3 5 5 3 1 3 8 7 2 4 7 10 7 5 5 8 7 7 6 5 4 4 3 4 4 3 3 3 3 3 4 3 2 2 3 3 3 3 3 4 5 6 5 4 3 3 3 3 2 2 2 2 2 2 2 2 3 3 4 5 5 5 4 5 5 6
1 3 4 1 2 1 1 4 5 3 1 1 1 1 1 1 2 4 6 4 3 5 1 7 3 10 4 4 10 10 13 10 9 7 10 10 9 9 7 7 7 7 6 5 5 4 4 4 4 4 4 4 4 3 2 3 3 4 3 4 4 4 4 3 4 3 3 2 2 2 1 1 1 1 2 2 3 4 4 4 4 5 6 6 5 5
2 2 5 0 3 1 2 3 7 9 5 0 1 2 1 0 2 3 1 4 4 4 4 4 7 6 5 4 7 8 9 13 16 17 13 12 10 9 9 9 8 7 7 7 6 6 6 5 5 4 3 2 1 1 2 2 3 1 2 3 3 3 3 3 1 2 2 2 2 2 4 3 4 4 3 4 4 5 5 5 5 5 4 5 7 6
1 1 7 0 0 5 6 3 5 5 7 8 10 9 10 5 3 4 9 3 1 2 5 3 13 6 3 1 3 3 6 11 15 14 12 10 10 10 9 8 8 8 8 8 7 6 6 5 5 4 1 1 1 2 3 1 1 1 1 1 1 1 1 1 1 1 1 1 1 2 3 3 3 3 3 4 4 5 5 5 6 5 6 7 7 6
3 2 1 6 5 7 4 0 2 2 2 2 6 5 4 2 4 2 8 5 1 3 4 2 0 8 1 3 3 4 6 12 11 9 10 11 12 11 9 7 7 7 8 8 7 6 6 6 5 5 4 4 4 3 1 1 1 1 1 0 0 0 2 1 2 1 1 2 3 4 4 4 5 5 6 6 6 6 6 6 6 6 7 7 7 6
6 2 1 5 3 2 3 2 2 1 2 1 1 3 3 4 7 8 5 5 4 1 1 1 4 3 2 2 3 3 2 2 4 8 11 10 9 8 6 7 9 7 6 6 6 5 6 6 4 4 4 4 3 3 4 3 3 2 2 2 1 2 4 3 2 3 3 3 4 4 5 5 5 6 6 6 5 6 6 6 5 5 5 6 6 7
2 3 5 1 3 3 3 2 1 1 2 1 2 1 1 2 4 2 4 1 0 6 6 5 15 7 0 3 3 3 3 6 9 8 10 13 8 6 7 7 7 7 6 7 8 8 7 6 6 6 5 4 4 4 4 4 4 4 4 1 2 2 4 3 2 2 2 2 3 4 5 5 4 4 4 4 4 4 4 4 5 4 5 6 6 5
4 3 6 6 11 11 10 7 5 4 7 2 1 1 2 6 5 3 4 3 6 2 6 4 9 3 3 2 3 2 3 1 1 4 2 4 6 7 8 8 9 9 10 9 8 7 9 8 6 5 5 4 4 5 4 3 1 1 1 1 1 0 1 2 1 1 3 3 3 4 4 3 3 3 3 3 4 4 4 4 4 4 4 4 6 7
2 1 3 8 10 13 9 2 2 3 2 4 4 5 7 3 3 4 4 3 9 2 4 6 5 3 8 3 0 3 4 7 8 8 8 4 6 6 4 7 8 9 9 10 10 8 6 6 8 7 6 5 5 3 1 1 1 0 1 2 2 1 1 2 3 4 4 4 3 2 2 2 3 3 3 4 4 4 4 4 5 5 6 6 6 7
2 1 5 5 6 4 1 1 1 2 3 2 3 5 5 5 5 7 9 8 5 1 13 8 4 4 11 9 4 4 6 5 7 9 7 6 6 9 9 5 4 4 4 4 6 8 10 9 7 7 6 5 4 3 3 1 1 2 3 4 3 3 3 3 4 4 4 3 2 2 3 3 3 3 4 3 3 4 4 4 5 5 5 6 8 8
4 5 2 1 6 3 1 4 5 4 3 3 5 6 8 7 4 9 5 6 7 10 16 9 6 8 9 11 5 9 9 10 10 8 8 9 5 3 3 5 6 8 8 9 10 9 8 8 8 7 6 5 4 4 4 4 4 4 4 3 3 3 3 3 4 3 3 2 2 3 3 3 3 3 3 4 4 5 5 6 6 6 6 7 7 7
4 4 4 2 4 0 2 3 2 6 2 2 7 10 8 6 7 6 6 8 11 8 7 7 6 10 10 11 4 8 5 5 5 5 3 2 5 5 4 5 7 9 10 11 10 9 9 9 8 7 6 5 6 5 5 5 5 5 5 4 3 3 2 3 3 3 2 1 1 1 1 2 2 3 3 4 5 5 5 6 7 7 7 7 7 7
4 4 7 1 0 2 0 2 1 1 1 4 10 11 9 1 1 8 10 7 4 7 10 10 10 15 14 7 2 5 5 5 4 6 9 7 4 4 6 8 10 10 10 8 8 9 9 7 6 5 6 7 7 8 8 6 6 5 4 4 3 3 2 3 3 3 3 2 2 2 3 3 4 4 5 4 5 6 7 8 8 8 8 7 7 7
2 4 3 2 2 3 2 5 3 3 0 6 13 17 9 3 9 11 8 5 8 11 11 7 8 13 13 1 4 2 4 6 10 10 8 5 6 7 9 10 9 9 9 10 9 8 7 7 7 7 8 8 8 8 7 7 6 5 5 4 3 3 2 3 3 3 2 1 2 3 3 3 4 5 5 6 7 8 6 7 7 8 8 8 9 8
4 5 4 2 5 6 2 4 4 2 3 10 19 18 10 14 15 2 1 7 14 10 7 11 14 9 9 2 2 6 7 8 5 5 7 8 7 7 9 10 9 8 10 10 9 8 8 9 9 10 8 7 8 8 6 7 7 6 5 4 3 3 3 3 3 2 2 2 3 3 3 4 5 5 5 5 6 6 6 7 8 7 8 9 8 8
3 6 4 4 5 2 4 4 2 2 9 17 1 4 8 10 8 9 11 13 7 8 7 10 10 6 4 5 9 11 9 7 9 10 8 8 7 7 7 6 7 9 7 6 7 8 8 6 6 6 7 7 5 5 5 4 5 5 3 4 3 3 2 3 3 3 2 2 3 3 3 4 4 4 5 5 6 6 6 7 7 7 7 8 8 8
6 6 6 3 5 4 3 4 2 12 17 2 4 3 6 8 7 11 10 5 6 9 8 7 5 7 12 11 11 8 4 5 5 7 6 7 5 7 9 9 9 8 7 7 7 7 7 8 6 6 5 6 6 6 6 5 5 4 3 3 3 3 3 3 3 3 2 2 2 3 3 5 4 5 5 5 5 6 6 6 7 7 7 7 7 8
5 6 2 0 3 4 3 7 9 12 2 1 4 1 0 4 2 2 5 9 12 10 11 10 11 13 12 10 5 1 3 4 3 3 4 4 6 8 8 9 8 7 7 8 10 9 9 9 11 11 9 6 6 5 4 5 4 4 3 2 4 3 3 2 2 1 1 2 2 3 4 4 4 5 5 6 6 6 7 7 6 8 7 7 7 6
8 3 3 4 3 7 5 7 13 5 12 11 10 3 7 5 6 6 6 11 8 7 9 8 12 13 9 5 0 0 0 0 0 3 3 5 5 4 6 6 6 8 7 7 9 10 9 9 9 8 7 7 5 6 5 4 4 4 3 3 2 3 2 2 1 1 1 1 2 3 3 4 4 5 6 6 7 7 7 8 8 7 5 8 8 8
3 8 5 7 6 9 8 10 5 3 11 14 7 1 1 4 5 5 4 8 3 4 8 10 12 12 6 1 1 3 1 2 3 6 6 6 4 5 4 4 4 4 5 6 4 4 5 4 4 5 8 8 5 4 4 4 4 4 3 2 2 2 2 2 1 0 1 1 2 3 3 4 4 5 6 6 7 8 8 7 6 6 5 7 10 10
3 2 2 11 5 3 5 8 9 10 12 4 3 4 1 0 7 4 3 7 5 7 8 8 9 6 5 5 4 5 4 3 7 7 8 6 4 5 6 6 6 6 7 8 11 8 7 6 7 8 7 7 8 5 4 4 4 3 2 2 2 2 2 2 1 0 1 2 2 3 3 3 3 4 5 6 7 7 9 8 8 7 6 7 7 9
1 1 2 4 7 10 9 10 11 5 7 1 3 1 2 3 6 6 3 7 3 5 4 7 10 8 7 6 8 8 8 6 7 7 5 8 8 7 7 7 6 6 4 3 1 4 7 9 9 7 8 9 8 6 5 4 3 3 2 2 2 1 1 2 0 0 1 2 2 3 3 3 4 4 5 8 8 7 7 7 7 7 7 8 6 8
5 2 4 13 12 11 14 8 5 7 4 3 7 4 3 3 6 4 11 8 4 6 9 9 10 10 7 8 7 7 9 7 7 7 3 4 4 4 4 2 4 5 7 6 6 8 8 8 10 11 9 7 7 6 4 3 3 2 2 1 1 2 2 1 0 1 1 2 3 3 4 4 4 6 6 6 8 8 7 6 8 8 8 8 8 7
3 2 4 4 9 11 9 7 10 7 6 7 3 10 6 6 4 11 5 4 8 7 7 10 10 8 8 10 9 8 8 10 6 0 3 6 11 11 8 5 4 2 2 3 7 8 8 7 6 6 6 5 7 6 4 4 3 1 1 0 2 3 0 0 1 1 1 2 3 4 4 4 5 5 6 6 6 8 9 7 7 8 8 7 7 9
10 8 7 8 3 2 2 8 4 11 4 12 11 3 2 6 7 5 3 2 5 7 10 8 7 6 9 8 9 10 9 6 5 7 7 8 9 8 8 9 9 9 9 6 5 5 9 9 8 8 8 6 5 5 3 4 3 2 1 2 3 1 1 1 1 2 2 3 4 4 5 5 5 6 5 6 6 8 10 8 7 7 7 8 8 9
5 5 3 3 5 6 9 10 11 6 7 10 14 9 6 12 7 6 5 3 4 6 7 7 7 8 8 9 9 9 8 8 5 4 4 5 7 5 5 6 6 5 5 7 9 12 8 8 7 7 6 5 5 4 4 5 4 3 3 5 1 1 1 0 1 1 2 3 4 5 5 5 5 6 5 6 7 7 9 9 8 7 6 7 7 8
7 9 8 8 5 9 9 9 2 6 8 7 9 6 10 13 8 7 6 7 5 6 6 6 9 9 9 10 8 8 6 7 9 8 9 11 10 9 8 11 12 13 13 12 9 8 7 11 10 8 6 5 4 5 4 4 4 3 3 2 2 1 1 1 1 2 3 4 5 5 5 5 5 6 6 6 6 8 8 9 7 8 6 5 7 7
4 4 1 2 6 4 4 2 1 2 7 11 8 6 7 9 9 6 8 7 5 5 8 8 8 9 8 8 7 6 7 7 7 6 6 7 7 9 7 4 4 3 4 4 4 7 6 6 7 8 7 4 5 5 4 4 4 3 3 1 1 1 1 1 2 3 4 5 5 6 6 6 6 6 6 7 6 7 7 8 8 8 8 6 7 7
5 3 3 4 3 4 8 3 5 6 5 8 12 11 7 6 9 7 6 7 8 6 6 6 8 8 10 9 10 10 10 9 8 8 6 5 6 7 9 10 9 10 11 11 9 9 8 8 8 8 7 6 4 5 4 3 3 3 2 1 2 1 1 1 2 3 4 5 5 5 5 6 6 7 5 5 5 6 6 7 7 7 7 7 8 8
6 5 5 11 5 6 6 5 7 3 1 5 9 10 11 14 9 5 8 8 9 8 7 8 4 5 3 5 10 9 11 9 8 9 7 8 9 9 9 9 9 7 5 5 8 7 6 8 9 8 7 6 6 4 4 3 3 2 2 2 2 1 0 1 2 4 4 5 5 5 5 6 7 8 7 6 5 7 7 6 6 7 7 7 8 9
4 5 6 5 7 3 1 4 5 1 3 6 8 9 10 9 7 7 8 7 7 7 6 3 4 7 6 10 8 8 8 10 9 10 9 9 8 7 8 10 10 10 9 10 9 10 11 8 8 7 7 5 5 4 4 3 3 1 2 2 1 1 1 2 3 3 4 5 5 6 5 6 6 6 6 7 6 6 6 8 8 8 9 9 8 8
4 11 4 5 2 0 7 11 8 3 7 10 11 14 15 12 6 6 4 5 7 8 8 8 9 7 8 8 6 7 9 10 10 8 9 10 10 10 8 7 7 8 7 6 7 7 6 7 8 7 6 4 5 4 4 4 3 3 2 2 2 1 2 3 2 3 4 5 5 6 5 5 5 5 6 6 7 8 8 9 16 13 10 10 15 21
12 15 5 5 5 9 11 13 9 9 6 7 8 7 8 7 7 9 11 11 10 10 10 8 9 8 8 10 7 9 10 11 11 8 9 8 10 10 9 9 10 9 9 9 9 7 7 6 5 6 5 5 4 4 4 3 3 2 2 2 2 2 3 3 3 3 4 4 5 6 5 5 5 5 5 6 6 7 8 11 11 15 18 17 17 19
Wind_Direction
110 164 179 207 219 217 212 202 210 203 123 132 113 129 224 241 274 268 246 251 144 320 251 249 240 259 274 292 356 347 29 57 61 70 76 66 66 60 55 52 43 43 31 341 1 14 11 15 16 15 19 21 32 29 25 32 30 31 28 34 32 15 23 36 40 42 45 47 48 51 52 62 38 39 43 44 29 35 30 25 28 33 38 41 46 41
74 197 234 224 222 225 225 217 284 271 80 170 249 246 282 229 266 259 252 353 308 164 296 85 270 271 263 349 13 4 53 39 44 75 71 76 69 64 60 50 44 25 14 14 23 16 19 18 16 19 24 23 32 21 25 31 31 32 32 37 29 21 26 27 24 45 58 45 73 94 77 79 51 41 40 36 27 23 31 31 26 23 23 36 41 36
185 213 231 229 202 84 86 152 179 198 234 207 214 244 285 268 245 284 271 317 289 123 262 29 311 285 311 17 28 54 61 59 39 51 64 72 71 61 50 52 43 37 26 24 27 24 21 16 18 24 26 30 32 31 30 25 33 32 33 32 34 31 30 23 18 29 44 50 47 68 58 72 87 63 73 68 45 35 38 34 28 23 23 24 28 24
262 266 254 256 155 188 331 102 128 102 82 158 113 140 237 228 25 301 303 12 30 163 270 239 281 271 13 65 61 29 64 75 61 62 58 45 63 62 53 46 49 33 27 37 27 23 16 20 24 28 30 26 32 33 31 27 30 33 32 31 33 33 32 28 21 25 19 47 64 64 73 63 73 75 48 56 42 32 33 29 25 28 21 27 33 28
213 209 328 82 149 165 195 149 131 143 239 256 192 206 256 232 231 187 253 311 266 8 77 316 274 300 256 190 59 80 57 76 50 57 54 42 43 60 68 59 39 36 19 38 33 24 21 25 24 25 25 29 37 33 31 27 29 34 33 32 36 36 34 31 25 25 27 39 41 44 58 54 48 34 33 34 27 27 29 31 25 17 23 27 33 29
266 248 109 61 72 107 122 112 192 139 232 312 226 204 221 229 229 255 324 359 6 334 339 60 340 305 305 264 159 152 61 53 21 61 49 37 37 34 53 47 27 27 24 47 38 27 22 25 23 26 27 33 33 32 23 27 34 36 36 35 37 39 35 30 27 24 39 46 50 46 45 44 46 44 30 29 16 14 23 14 1 26 24 25 31 29
228 291 182 223 188 137 141 191 237 166 192 41 275 196 220 227 221 189 206 69 292 220 316 49 319 278 311 197 189 152 99 80 34 53 52 40 41 34 35 32 18 14 27 33 38 30 32 19 30 31 30 26 34 22 15 31 36 39 41 40 41 42 39 31 32 32 41 50 51 57 61 60 59 64 39 27 27 33 21 31 32 19 21 21 24 22
140 331 188 175 181 202 229 269 235 161 116 236 253 140 143 147 186 214 162 171 228 267 303 19 108 270 289 282 172 143 115 93 73 53 56 60 52 38 35 19 14 21 31 42 39 33 30 31 33 38 29 30 27 14 25 36 38 41 40 43 44 44 42 36 35 42 40 54 50 55 55 54 52 52 45 29 31 36 34 41 31 27 22 18 21 21
141 320 146 148 139 159 214 209 189 154 148 219 224 113 126 155 163 116 89 117 80 15 288 308 283 315 267 260 56 144 134 169 163 164 162 142 90 64 46 23 29 36 35 45 49 38 32 30 30 35 42 28 32 28 36 38 40 45 48 51 51 48 44 36 40 47 45 54 57 61 59 60 47 50 46 44 42 41 34 45 31 32 23 20 20 23
305 165 221 156 145 215 223 286 174 167 191 258 130 90 84 74 65 94 101 67 334 34 258 203 172 232 277 263 137 290 282 218 191 188 185 190 175 158 94 55 44 40 38 33 43 43 38 25 32 33 54 47 37 33 39 46 48 50 55 56 56 49 45 41 46 50 51 52 57 60 57 62 52 43 43 48 45 41 38 47 38 31 29 19 19 17
272 296 158 129 193 203 136 63 132 32 47 125 90 61 13 40 30 27 62 91 31 268 243 188 198 175 282 251 199 168 218 181 139 161 202 200 204 186 133 93 63 44 39 37 36 36 40 23 38 36 58 48 40 35 45 47 48 51 56 60 61 51 50 46 48 51 52 51 52 59 58 59 56 47 48 47 40 34 37 38 33 31 24 24 24 17
346 358 288 258 81 111 108 82 37 88 77 123 78 116 30 338 7 33 341 40 79 267 119 269 210 174 205 290 299 239 351 200 162 176 181 185 190 182 163 141 82 55 40 36 43 41 31 44 40 48 55 48 42 46 46 46 45 50 53 61 68 52 50 50 51 57 56 57 56 59 59 61 57 54 53 51 46 35 39 33 30 18 26 23 21 22
285 231 235 326 212 127 100 77 339 25 20 72 76 56 101 268 28 316 20 287 211 237 229 48 155 47 244 219 241 310 307 318 248 182 175 175 173 172 173 168 129 71 60 52 59 56 50 59 56 57 56 54 48 51 48 46 50 51 53 54 67 52 45 48 51 59 58 59 57 58 60 62 61 60 59 54 52 39 40 31 29 24 22 12 17 13
279 294 359 247 13 214 132 150 185 43 264 116 146 141 90 324 38 272 275 230 312 291 277 51 88 265 257 294 103 265 289 274 255 185 172 164 163 167 167 158 131 92 93 109 86 89 79 80 72 69 74 69 67 61 57 54 58 58 61 57 66 58 44 45 51 53 59 56 56 55 60 58 57 57 55 53 52 42 43 38 37 32 24 20 19 9
343 339 276 144 234 180 168 189 186 164 159 203 118 149 185 144 150 238 204 228 237 233 281 278 82 231 128 226 308 254 284 316 349 118 123 121 142 145 139 126 121 125 139 175 142 132 111 87 89 97 92 88 88 87 79 77 74 75 70 67 70 65 45 51 52 53 58 54 50 52 57 60 59 61 59 56 52 45 42 35 37 30 20 22 6 8
214 224 258 273 259 139 177 253 109 102 56 163 162 77 85 228 143 228 198 171 251 324 327 200 200 195 177 253 276 356 24 34 49 101 118 129 131 126 129 152 168 178 187 195 183 142 111 112 116 106 98 102 98 98 97 89 95 90 90 88 85 82 69 61 61 59 63 59 56 52 54 53 55 57 62 60 49 42 39 33 37 19 13 4 351 349
44 279 285 327 53 147 214 134 222 140 219 224 105 197 212 142 131 32 358 56 78 42 254 139 304 295 305 101 28 343 81 50 73 111 141 157 157 151 172 185 187 193 200 198 194 170 143 127 98 109 110 103 93 88 90 96 98 105 105 100 95 93 87 77 74 75 70 65 63 49 50 50 54 54 56 55 48 41 26 30 20 19 354 347 353 347
195 246 284 102 230 308 213 6 88 29 148 97 166 235 134 133 115 132 220 323 67 209 267 76 217 282 86 277 48 17 169 190 174 173 179 179 171 179 199 193 195 198 202 208 205 203 185 167 154 152 137 127 128 120 106 113 128 112 109 105 102 96 86 80 80 73 68 68 66 59 57 53 61 66 64 63 53 37 36 19 13 358 2 356 342 348
118 293 274 241 127 312 7 112 26 348 41 151 192 214 127 241 240 312 87 257 266 257 266 296 241 249 194 241 113 245 201 202 198 198 184 200 195 202 204 211 218 222 212 201 201 197 198 185 175 168 155 160 144 137 129 125 116 101 86 85 87 86 87 85 72 75 81 85 104 120 110 99 81 75 71 54 45 37 35 18 6 3 343 339 343 349
24 223 296 343 126 288 29 85 210 235 338 51 60 64 297 113 186 134 199 189 148 274 319 286 319 256 198 218 187 208 200 184 175 192 210 199 196 198 200 199 200 200 199 196 199 201 193 190 190 177 162 145 130 116 104 109 86 75 81 82 76 73 67 60 51 54 62 43 63 29 37 32 12 64 44 61 42 32 28 11 4 355 356 345 338 344
199 114 254 2 311 51 180 182 207 167 185 200 178 267 306 354 227 102 4 142 198 194 205 249 284 272 264 203 179 211 181 181 181 194 195 191 196 202 201 196 197 197 194 200 196 192 186 184 190 194 181 155 87 126 119 116 121 136 108 89 73 84 43 37 12 59 43 38 29 35 18 358 10 357 4 16 22 19 9 3 360 360 344 338 348 347
94 173 227 77 241 202 237 245 192 192 193 175 177 205 190 153 213 239 257 63 105 155 234 191 258 276 265 165 220 202 207 186 201 188 179 180 194 203 205 205 194 193 202 197 194 185 182 186 190 199 201 123 122 138 128 53 75 75 98 109 55 56 32 45 331 345 327 14 12 44 2 349 353 357 9 15 17 9 1 356 353 347 349 349 335 349
156 143 111 244 199 200 225 288 276 195 126 173 151 232 163 157 104 136 247 245 31 243 102 186 257 260 237 274 269 244 205 203 189 167 173 182 196 203 206 197 200 202 196 192 187 185 188 189 190 187 187 185 179 181 182 270 217 222 256 285 262 164 267 209 246 284 355 358 2 1 358 2 16 356 13 5 3 358 348 346 343 348 349 340 335 334
83 107 236 275 324 323 328 309 35 92 123 78 358 75 117 180 184 196 203 187 163 296 291 331 243 259 324 337 299 271 213 173 154 171 173 185 199 207 194 192 201 202 201 189 185 184 190 191 190 182 190 195 200 202 219 225 240 258 268 258 237 218 247 269 318 326 349 351 356 18 5 17 7 10 6 3 348 344 334 335 332 333 338 326 331 330
105 264 141 258 320 336 351 345 346 339 54 179 194 214 147 95 74 123 93 100 193 215 185 161 253 241 276 9 1 52 101 149 167 184 182 184 202 197 199 207 205 201 190 188 186 188 190 193 192 192 191 193 201 211 223 224 226 228 249 299 333 335 3 1 353 8 7 32 5 18 23 9 6 2 345 335 329 321 320 324 324 327 328 325 327 324
172 194 128 203 230 241 242 207 241 258 227 220 241 170 231 152 156 115 222 183 221 234 168 221 256 272 280 360 37 58 96 92 230 201 230 204 193 200 208 209 203 193 198 188 185 184 193 196 194 190 196 201 206 210 218 238 326 350 357 30 22 53 351 4 21 94 87 70 66 36 26 347 342 329 320 321 323 324 325 326 330 328 326 330 329 331
170 80 173 213 220 241 245 214 238 108 69 188 238 190 211 177 186 149 112 155 214 226 244 228 226 284 294 278 80 169 178 168 179 207 211 224 238 238 241 218 204 198 192 189 189 190 181 189 196 196 200 203 209 206 187 166 191 170 57 50 31 48 82 60 87 73 72 62 59 48 347 336 335 332 337 340 336 338 344 345 342 344 343 344 342 336
77 264 238 222 251 250 131 197 214 197 221 251 158 242 213 178 165 157 184 223 155 108 254 239 213 226 257 264 205 204 206 217 206 194 206 230 235 216 219 215 198 191 204 189 186 186 193 196 197 201 207 210 203 162 168 164 155 122 115 108 92 84 89 77 81 73 71 67 39 21 352 347 331 341 341 340 346 348 347 344 345 347 344 345 339 334
150 220 276 121 259 240 179 187 184 169 218 209 220 234 223 194 160 184 225 204 180 210 254 257 220 217 244 251 191 200 193 197 209 214 212 216 224 202 177 192 197 202 199 193 199 190 188 198 202 205 207 198 171 168 160 139 125 113 104 109 106 91 88 95 88 82 80 53 42 2 340 327 330 342 347 346 351 351 351 352 347 344 342 336 331 329
97 242 213 149 243 90 270 208 224 190 234 268 249 247 237 205 202 196 211 222 215 242 259 271 277 261 249 255 180 212 222 204 225 226 246 223 221 208 198 210 211 209 200 199 197 194 196 202 201 203 191 177 174 167 159 149 148 150 145 141 133 105 123 113 110 107 105 90 77 322 314 326 341 350 348 352 355 354 351 346 341 337 334 331 328 326
129 266 118 188 141 282 254 335 5 35 242 262 265 257 249 269 256 209 220 232 287 278 260 260 257 263 262 251 239 235 211 228 264 264 239 234 233 211 210 218 218 212 206 200 197 200 201 201 199 187 182 185 180 177 168 161 152 147 135 142 140 130 128 114 100 83 68 32 12 347 354 357 354 355 358 357 351 350 347 343 339 334 329 329 329 327
107 243 50 118 170 282 203 159 155 76 270 249 267 262 245 188 243 235 226 203 214 229 239 253 261 256 264 93 189 167 177 197 218 232 246 248 229 217 218 224 216 207 200 199 200 194 194 195 190 189 193 189 182 172 162 156 158 151 156 157 141 120 102 86 83 78 54 32 2 359 2 358 0 0 355 355 350 346 344 337 336 333 330 329 331 330
182 141 144 151 211 234 218 145 148 52 346 289 252 247 234 228 231 247 230 205 214 209 210 220 238 248 258 245 169 245 213 223 237 240 250 255 242 218 219 219 211 202 199 194 191 193 191 191 194 194 188 176 173 169 176 158 155 166 157 141 131 103 86 89 91 80 53 29 7 6 6 12 10 356 350 347 345 337 337 336 331 330 330 326 326 323
128 152 180 189 200 193 125 131 86 109 235 242 333 128 187 225 201 208 232 233 217 164 207 206 235 255 274 264 241 250 240 222 221 233 217 217 218 216 228 222 210 201 196 189 187 188 194 189 186 183 175 169 163 159 149 159 147 140 130 114 112 106 100 90 55 60 32 26 9 16 21 14 1 346 338 337 337 336 332 331 324 322 320 316 321 320
173 190 190 164 162 195 158 104 184 218 241 272 150 198 187 194 160 200 233 246 213 217 224 248 276 255 236 232 234 246 259 259 252 243 236 226 200 199 199 203 206 196 183 181 191 195 184 177 167 154 152 163 159 153 141 123 119 113 102 117 104 89 74 63 57 35 20 13 13 35 15 4 346 336 331 332 330 328 323 319 316 316 316 317 316 318
175 176 141 235 117 39 119 191 225 238 240 193 228 230 137 92 145 137 296 258 242 216 211 217 232 238 241 245 252 236 237 266 283 253 229 219 196 191 187 200 201 181 184 193 184 189 176 177 174 175 176 154 147 145 127 129 122 117 113 85 95 75 77 83 65 18 13 22 41 26 2 352 337 329 328 325 323 321 316 314 311 313 316 310 305 297
175 121 164 220 175 208 202 207 237 327 305 282 265 176 173 161 171 159 245 264 241 186 192 200 229 244 243 256 181 78 287 25 328 289 268 211 215 215 190 201 182 194 194 193 185 184 186 178 179 172 141 143 144 134 132 123 122 123 115 94 90 91 76 72 39 345 34 65 28 10 355 342 332 323 321 321 318 313 310 312 312 309 310 304 302 303
255 188 198 220 232 206 217 252 260 240 245 247 247 22 181 171 150 178 169 279 278 195 195 188 220 237 243 267 170 176 130 78 289 265 256 249 193 205 237 236 227 200 187 176 171 167 167 154 114 119 141 140 132 128 126 130 133 127 118 116 90 78 50 51 332 342 66 25 8 349 336 332 325 315 313 311 305 303 302 302 299 297 304 300 304 302
354 7 250 216 219 207 223 224 219 239 247 227 201 193 216 74 127 98 66 286 263 206 217 182 218 232 213 184 176 142 117 180 244 248 250 240 232 199 192 212 195 191 184 177 175 172 167 158 149 140 133 137 140 147 139 140 140 129 119 101 76 59 36 344 305 39 23 340 341 324 323 314 310 303 300 298 295 297 299 301 299 298 297 288 289 290
183 349 155 272 223 220 227 236 242 228 258 273 193 258 194 129 108 71 44 276 263 216 188 175 205 214 208 184 154 160 154 199 240 251 229 212 201 190 178 174 190 196 195 185 181 160 146 135 125 137 154 163 159 145 146 142 119 103 90 56 59 24 322 286 166 98 351 312 315 309 306 300 296 290 289 291 293 292 290 293 296 293 293 290 286 290
176 266 221 216 224 228 230 247 278 273 255 174 167 153 153 137 84 122 218 229 232 198 201 181 202 203 177 158 166 174 222 197 210 231 219 184 165 202 237 237 192 178 175 170 164 137 146 163 166 168 169 153 145 143 142 126 105 86 82 83 30 254 249 196 101 328 311 309 296 291 288 288 280 287 284 281 288 290 290 288 287 292 289 290 290 285
342 78 320 280 228 225 230 249 240 275 243 157 253 142 164 99 207 218 233 196 154 201 198 194 197 204 172 180 186 204 218 224 239 235 195 184 187 198 192 173 126 87 72 130 150 151 151 154 142 128 128 142 141 141 128 110 97 108 127 150 237 242 163 114 292 302 292 285 287 284 284 280 280 274 281 286 287 291 287 281 277 279 284 283 285 287
188 148 208 202 199 53 172 239 268 255 241 124 125 80 260 161 232 191 182 227 190 182 182 214 213 216 174 209 208 210 228 244 216 209 211 204 198 195 178 175 178 177 168 147 162 191 158 154 163 164 155 148 142 132 125 109 118 146 165 220 244 179 160 224 250 278 279 288 283 283 283 284 286 288 287 287 283 282 285 285 283 277 273 280 283 282
204 119 232 252 184 167 191 203 211 228 119 162 133 178 205 210 201 170 149 225 213 179 185 195 221 217 198 197 208 224 231 238 254 210 229 248 242 236 198 195 191 179 182 195 179 173 168 156 154 150 152 147 142 133 132 127 143 167 196 239 186 172 192 226 266 277 287 282 280 284 285 283 285 282 281 280 282 278 280 285 281 277 270 272 277 286
207 191 176 189 210 164 200 220 184 138 156 196 176 195 204 214 212 188 171 203 187 222 192 180 220 220 203 205 215 211 228 226 229 215 196 215 214 214 197 197 192 192 189 185 180 168 170 167 164 152 150 154 145 141 139 141 145 178 209 214 142 228 228 257 276 300 291 285 284 284 281 284 280 281 277 273 273 280 279 282 282 288 276 267 279 279
276 206 138 86 245 270 282 168 81 103 163 198 229 211 204 224 234 210 202 222 236 210 170 189 218 214 207 203 202 241 224 236 235 231 211 224 222 230 228 222 215 178 154 134 138 162 158 134 141 150 159 163 158 152 148 157 149 181 221 165 190 225 243 268 303 299 285 284 285 285 290 294 287 276 271 269 263 259 266 273 285 283 288 282 276 274
245 147 169 208 267 129 254 114 152 213 219 195 211 231 236 228 226 205 202 214 229 217 214 227 217 205 202 187 198 215 230 229 229 233 217 220 227 227 217 211 205 187 177 181 175 147 144 150 154 167 165 174 180 163 166 168 181 194 212 224 239 241 273 306 277 277 281 283 285 287 288 286 289 289 276 269 268 262 264 269 271 275 280 280 281 279
301 177 163 229 207 182 241 215 219 257 25 224 210 216 233 240 230 183 207 214 220 227 211 221 200 242 167 188 208 210 231 232 218 229 222 217 220 217 214 212 200 186 191 162 150 157 146 159 168 170 170 182 179 167 173 182 197 206 208 233 244 244 192 275 267 269 273 279 282 285 283 280 279 283 290 282 278 287 286 272 266 272 273 278 278 282
192 111 224 177 196 239 343 274 225 107 282 252 239 241 239 234 225 216 217 223 230 238 249 248 191 215 199 223 207 208 227 242 220 217 220 227 226 221 214 208 199 187 161 158 171 168 173 169 164 171 168 182 165 165 175 205 220 211 222 235 228 185 205 256 267 273 280 279 285 281 277 275 279 281 284 292 284 266 261 281 286 277 272 253 245 252
89 240 203 88 171 24 196 230 209 202 249 238 227 227 230 232 215 232 222 234 238 238 238 235 246 230 226 232 213 194 214 235 232 210 222 226 224 221 215 197 177 163 164 158 148 159 149 159 159 161 168 171 162 170 188 218 221 216 215 225 232 188 210 249 264 276 277 274 276 276 280 280 279 283 286 288 294 298 289 270 284 286 286 291 288 287
201 227 145 167 177 236 232 232 214 217 256 249 242 225 216 217 198 218 230 226 229 226 226 221 239 257 242 241 213 198 215 225 237 215 220 228 228 220 204 175 164 166 165 158 150 160 160 156 150 147 159 171 166 181 199 213 215 218 231 213 221 200 216 224 244 256 267 274 269 276 284 289 292 289 285 285 293 295 301 308 299 294 291 288 289 292